This demonstration page uses our WeatherBlox Daily Observations layout. Learn more.

Hourly Observations for May 29, 2015

Temp ( °F °C ) Dew Point ( °F °C ) Humidity (%) Winds ( mph kmh ) Pressure ( in mb ) Visibility ( mi km ) Precip ( " mm )
12:15 am 00:15 Partly Cloudy 60 15.8 53 11.5 76 76 Calm 29.88 1012 10 16.0934 0 0
12:35 am 00:35 Mostly Cloudy 60 15.8 53 11.6 76 76 Calm 29.88 1012 10 16.0934 0 0
12:55 am 00:55 Mostly Cloudy 61 15.9 52 11.3 74 74 SE 6 9 29.88 1012 10 16.0934 0 0
1:15 am 01:15 Partly Cloudy 59 15.2 53 11.5 79 79 Calm 29.91 1013 10 16.0934 0 0
1:35 am 01:35 Partly Cloudy 59 15.1 52 11.3 78 78 WNW 6 9 29.91 1013 10 16.0934 0 0
1:55 am 01:55 Mostly Cloudy 59 15 53 11.6 80 80 W 3 6 29.91 1013 10 16.0934 0 0
2:15 am 02:15 Cloudy 59 15.1 53 11.7 80 80 WNW 8 13 29.91 1013 10 16.0934 0 0
2:35 am 02:35 Cloudy 59 15 54 12 82 82 W 12 19 29.94 1014 10 16.0934 0 0
2:55 am 02:55 Mostly Cloudy 59 15.1 53 11.6 80 80 WNW 10 17 29.91 1013 10 16.0934 0 0
3:15 am 03:15 Cloudy 59 15.1 53 11.5 79 79 W 7 11 29.91 1013 10 16.0934 0 0
3:35 am 03:35 Partly Cloudy 59 15 53 11.5 80 80 W 9 15 29.91 1013 10 16.0934 0 0
3:55 am 03:55 Clear 58 14.6 53 11.5 82 82 W 7 11 29.88 1012 10 16.0934 0 0
4:15 am 04:15 Clear 58 14.5 53 11.5 82 82 W 6 9 29.88 1012 10 16.0934 0 0
4:35 am 04:35 Clear 58 14.5 53 11.5 82 82 WSW 5 7 29.88 1012 10 16.0934 0 0
4:55 am 04:55 Clear 58 14.7 52 11.2 80 80 W 9 15 29.88 1012 10 16.0934 0 0
5:15 am 05:15 Clear 58 14.2 52 11.2 82 82 SW 5 7 29.88 1012 10 16.0934 0 0
5:35 am 05:35 Partly Cloudy 56 13.6 52 11.3 86 86 W 5 7 29.91 1013 10 16.0934 0 0
5:55 am 05:55 Clear 56 13.6 53 11.4 87 87 WNW 6 9 29.91 1013 10 16.0934 0 0
6:15 am 06:15 Partly Cloudy 56 13.4 52 11.2 87 87 WNW 5 7 29.94 1014 10 16.0934 0 0
6:35 am 06:35 Partly Cloudy 55 13 52 11.1 88 88 NW 3 6 29.94 1014 10 16.0934 0 0
6:55 am 06:55 Partly Cloudy 55 13 52 11.2 89 89 NW 3 6 29.94 1014 10 16.0934 0 0
7:15 am 07:15 Partly Cloudy 55 13 52 11.3 90 90 NW 6 9 29.94 1014 10 16.0934 0 0
7:35 am 07:35 Sunny 56 13.4 53 11.8 90 90 NW 5 7 29.94 1014 10 16.0934 0 0
7:55 am 07:55 Sunny 59 14.8 55 12.7 87 87 NW 7 11 29.94 1014 10 16.0934 0 0
8:15 am 08:15 Sunny 60 15.8 55 12.6 81 81 NNW 9 15 29.91 1013 10 16.0934 0 0
8:35 am 08:35 Sunny 63 17.1 55 12.6 75 75 NNW 10 17 29.91 1013 10 16.0934 0 0
8:55 am 08:55 Sunny 64 18 55 12.5 70 70 NW 13 20 29.91 1013 10 16.0934 0 0
9:15 am 09:15 Sunny 65 18.4 55 12.5 69 69 NNW 15 24 29.91 1013 10 16.0934 0 0
9:35 am 09:35 Sunny 66 18.8 55 12.8 68 68 NNW 10 17 29.94 1014 10 16.0934 0 0
9:55 am 09:55 Sunny 67 19.5 56 13.1 67 67 NW 12 19 29.91 1013 10 16.0934 0 0
10:15 am 10:15 Sunny 69 20.4 55 12.5 61 61 NNW 8 13 29.91 1013 10 16.0934 0 0
10:35 am 10:35 Sunny 69 20.8 54 12.2 58 58 NNW 8 13 29.91 1013 10 16.0934 0 0
10:55 am 10:55 Sunny 70 21.2 54 12.2 57 57 NNW 8 13 29.91 1013 10 16.0934 0 0
11:15 am 11:15 Sunny 71 21.6 52 11.3 52 52 NNW 8 13 29.91 1013 10 16.0934 0 0
11:35 am 11:35 Sunny 72 22.3 52 11.1 49 49 N 10 17 29.91 1013 10 16.0934 0 0
11:55 am 11:55 Sunny 73 22.9 52 11.1 47 47 NNW 10 17 29.91 1013 10 16.0934 0 0
12:15 pm 12:15 Sunny 74 23.1 52 11.1 47 47 NNW 8 13 29.91 1013 10 16.0934 0 0
12:35 pm 12:35 Partly Cloudy 74 23.6 53 11.7 47 47 N 9 15 29.88 1012 10 16.0934 0 0
12:55 pm 12:55 Partly Cloudy 75 23.7 53 11.5 46 46 N 8 13 29.88 1012 10 16.0934 0 0
1:15 pm 13:15 Partly Cloudy 74 23.3 53 11.6 48 48 NNW 9 15 29.91 1013 10 16.0934 0 0
1:35 pm 13:35 Mostly Cloudy 76 24.3 53 11.5 45 45 NNW 10 17 29.88 1012 10 16.0934 0 0
1:55 pm 13:55 Mostly Cloudy 76 24.3 53 11.6 45 45 NNW 10 17 29.88 1012 10 16.0934 0 0
2:15 pm 14:15 Mostly Cloudy 73 23 53 11.5 48 48 NW 8 13 29.91 1013 10 16.0934 0 0
2:35 pm 14:35 Mostly Cloudy 73 23 52 11.2 47 47 NNW 14 22 29.91 1013 10 16.0934 0 0
2:55 pm 14:55 Mostly Cloudy 74 23.6 51 10.7 44 44 NNW 9 15 29.88 1012 10 16.0934 0 0
3:15 pm 15:15 Mostly Cloudy 75 24.1 51 10.4 42 42 NNW 10 17 29.88 1012 10 16.0934 0 0
3:35 pm 15:35 Partly Cloudy 75 24.1 52 10.9 44 44 NNE 15 24 29.88 1012 10 16.0934 0 0
3:55 pm 15:55 Partly Cloudy 75 23.7 52 11.2 45 45 N 13 20 29.88 1012 10 16.0934 0 0
4:15 pm 16:15 Partly Cloudy 75 23.9 55 12.5 49 49 N 16 26 29.88 1012 10 16.0934 0 0
4:35 pm 16:35 Mostly Cloudy 69 20.7 54 12.2 58 58 N 25 41 29.91 1013 10 16.0934 0 0
4:55 pm 16:55 Mostly Cloudy 70 20.9 55 12.5 59 59 N 18 30 29.91 1013 10 16.0934 0 0
5:15 pm 17:15 Partly Cloudy 71 21.4 55 12.7 58 58 N 20 31 29.91 1013 10 16.0934 0 0
5:35 pm 17:35 Partly Cloudy 67 19.5 52 11.2 59 59 N 24 39 29.94 1014 10 16.0934 0 0
5:55 pm 17:55 Mostly Cloudy 63 17 51 10.5 66 66 N 26 43 29.97 1015 10 16.0934 0 0
6:15 pm 18:15 Cloudy with Rain 59 15.2 52 11.3 78 78 N 22 35 30.03 1017 10 16.0934 0 0
6:35 pm 18:35 Cloudy with Rain 57 13.9 53 11.7 87 87 NNW 26 43 30.06 1018 7 11.26538 0.04 1.016
6:55 pm 18:55 Cloudy with Light Rain 57 13.7 53 11.5 87 87 N 22 35 30.03 1017 10 16.0934 0.07 1.778
7:15 pm 19:15 Cloudy with Light Rain 56 13.1 52 11 87 87 NNE 23 37 30.06 1018 10 16.0934 0.02 0.508
7:35 pm 19:35 Mostly Cloudy 56 13.6 53 11.5 87 87 N 22 35 30.06 1018 10 16.0934 0.02 0.508
7:55 pm 19:55 Mostly Cloudy 56 13.5 52 11 85 85 N 26 43 30.06 1018 10 16.0934 0.02 0.508
8:15 pm 20:15 Cloudy 56 13.2 51 10.6 84 84 N 22 35 30.12 1020 10 16.0934 0 0
8:35 pm 20:35 Cloudy 55 12.5 49 9.7 83 83 N 20 31 30.12 1020 10 16.0934 0 0
8:55 pm 20:55 Cloudy 54 12.1 49 9.4 84 84 N 23 37 30.12 1020 10 16.0934 0 0
9:15 pm 21:15 Cloudy 54 12 49 9.2 83 83 N 24 39 30.12 1020 10 16.0934 0 0
9:35 pm 21:35 Cloudy 53 11.6 48 9 84 84 N 17 28 30.12 1020 10 16.0934 0 0
9:55 pm 21:55 Cloudy 53 11.5 48 8.8 84 84 N 22 35 30.12 1020 10 16.0934 0 0
10:15 pm 22:15 Cloudy 52 11 47 8.5 85 85 N 23 37 30.15 1021 10 16.0934 0 0
10:35 pm 22:35 Cloudy 52 10.9 47 8.4 85 85 N 16 26 30.15 1021 10 16.0934 0 0
10:55 pm 22:55 Cloudy 51 10.8 47 8.4 85 85 N 21 33 30.15 1021 10 16.0934 0 0
11:15 pm 23:15 Cloudy 51 10.4 46 8 85 85 N 17 28 30.18 1022 10 16.0934 0 0
11:35 pm 23:35 Cloudy 51 10.3 46 8 86 86 N 23 37 30.21 1023 10 16.0934 0 0
11:55 pm 23:55 Cloudy 50 10.2 46 7.8 85 85 N 21 33 30.21 1023 10 16.0934 0 0

Powered by AerisWeather